Time,TemperatureF,DewpointF,PressureIn,WindDirection,WindDirectionDegrees,WindSpeedMPH,WindSpeedGustMPH,Humidity,HourlyPrecipIn,Conditions,Clouds,dailyrainin,SoftwareType,DateUTC
2013-07-01 00:01:00,72.0,67.6,29.90,South,186,0.0,0.0,86,0.00,,OVC150,0.00,VWS V14.01,2013-07-01 04:01:00,
2013-07-01 00:02:00,71.9,67.5,29.90,SSE,150,0.0,0.0,86,0.00,,OVC150,0.00,VWS V14.01,2013-07-01 04:02:00,
2013-07-01 00:03:00,71.9,67.5,29.90,SSE,151,0.0,0.0,86,0.00,,OVC150,0.00,VWS V14.01,2013-07-01 04:03:00,
2013-07-01 00:08:00,71.7,67.3,29.90,SSE,150,0.0,1.0,86,0.00,,OVC150,0.00,VWS V14.01,2013-07-01 04:08:00,
2013-07-01 00:13:00,71.5,67.1,29.89,SSE,150,0.0,0.0,86,0.00,,OVC150,0.00,VWS V14.01,2013-07-01 04:13:00,
2013-07-01 00:18:00,71.4,67.0,29.90,SSE,150,0.0,0.0,86,0.00,,OVC150,0.00,VWS V14.01,2013-07-01 04:18:00,
2013-07-01 00:23:00,71.5,67.1,29.90,SSE,150,0.0,0.0,86,0.00,,OVC150,0.00,VWS V14.01,2013-07-01 04:23:00,
2013-07-01 00:28:00,71.5,67.1,29.90,SSE,150,0.0,0.0,86,0.00,,OVC150,0.00,VWS V14.01,2013-07-01 04:28:00,
2013-07-01 00:33:00,71.6,67.2,29.90,SSE,162,0.0,0.0,86,0.00,,OVC150,0.00,VWS V14.01,2013-07-01 04:33:00,
2013-07-01 00:38:00,71.6,67.2,29.91,SSW,194,1.0,1.0,86,0.00,,OVC150,0.00,VWS V14.01,2013-07-01 04:38:00,
2013-07-01 00:43:00,71.6,67.2,29.91,SSW,211,0.0,0.0,86,0.00,,OVC150,0.00,VWS V14.01,2013-07-01 04:43:00,
2013-07-01 00:48:00,71.6,67.2,29.91,SW,232,1.0,2.0,86,0.00,,OVC150,0.00,VWS V14.01,2013-07-01 04:48:00,
2013-07-01 00:53:00,71.6,67.2,29.91,SW,232,0.0,0.0,86,0.00,,OVC150,0.00,VWS V14.01,2013-07-01 04:53:00,
2013-07-01 00:58:00,71.7,67.3,29.91,WSW,246,0.0,1.0,86,0.00,,OVC120,0.00,VWS V14.01,2013-07-01 04:58:00,
2013-07-01 01:03:00,71.7,67.3,29.91,WSW,253,0.0,1.0,86,0.00,,OVC120,0.00,VWS V14.01,2013-07-01 05:03:00,
2013-07-01 01:08:00,71.7,66.9,29.91,WSW,252,0.0,0.0,85,0.00,,OVC120,0.00,VWS V14.01,2013-07-01 05:08:00,
2013-07-01 01:13:00,71.7,66.9,29.91,WSW,245,0.0,0.0,85,0.00,,OVC120,0.00,VWS V14.01,2013-07-01 05:13:00,
2013-07-01 01:18:00,71.7,66.9,29.91,WSW,246,0.0,0.0,85,0.00,,OVC120,0.00,VWS V14.01,2013-07-01 05:18:00,
2013-07-01 01:23:00,71.7,66.9,29.91,WSW,249,0.0,0.0,85,0.00,,OVC120,0.00,VWS V14.01,2013-07-01 05:23:00,
2013-07-01 01:28:00,71.7,66.9,29.91,SE,132,0.0,1.0,85,0.00,,OVC120,0.00,VWS V14.01,2013-07-01 05:28:00,
2013-07-01 01:34:00,71.7,66.6,29.91,WSW,252,1.0,1.0,84,0.00,,OVC120,0.00,VWS V14.01,2013-07-01 05:34:00,
2013-07-01 01:39:00,71.7,66.6,29.91,SW,229,0.0,0.0,84,0.00,,OVC120,0.00,VWS V14.01,2013-07-01 05:39:00,
2013-07-01 01:44:00,71.7,66.6,29.91,SW,225,0.0,0.0,84,0.00,,OVC120,0.00,VWS V14.01,2013-07-01 05:44:00,
2013-07-01 01:49:00,71.7,66.6,29.91,SW,233,1.0,1.0,84,0.00,,OVC120,0.00,VWS V14.01,2013-07-01 05:49:00,
2013-07-01 01:54:00,71.7,66.6,29.91,WSW,239,2.0,2.0,84,0.00,,OVC120,0.00,VWS V14.01,2013-07-01 05:54:00,
2013-07-01 01:59:00,71.7,66.6,29.91,SW,222,2.0,2.0,84,0.00,,OVC120,0.00,VWS V14.01,2013-07-01 05:59:00,
2013-07-01 02:04:00,71.7,66.6,29.91,SW,221,0.0,1.0,84,0.00,,OVC120,0.00,VWS V14.01,2013-07-01 06:04:00,
2013-07-01 02:09:00,71.7,66.6,29.91,SW,221,0.0,0.0,84,0.00,,OVC120,0.00,VWS V14.01,2013-07-01 06:09:00,
2013-07-01 02:14:00,71.7,66.6,29.90,SW,229,0.0,0.0,84,0.00,,OVC120,0.00,VWS V14.01,2013-07-01 06:14:00,
2013-07-01 02:19:00,71.7,66.6,29.90,SSE,148,0.0,0.0,84,0.00,,OVC120,0.00,VWS V14.01,2013-07-01 06:19:00,
2013-07-01 02:24:00,71.7,66.6,29.90,SSE,159,0.0,0.0,84,0.00,,OVC120,0.00,VWS V14.01,2013-07-01 06:24:00,
2013-07-01 02:29:00,71.7,66.3,29.90,SSE,159,0.0,0.0,83,0.00,,OVC120,0.00,VWS V14.01,2013-07-01 06:29:00,
2013-07-01 02:34:00,71.7,66.3,29.90,SSE,159,0.0,0.0,83,0.00,,OVC032,0.00,VWS V14.01,2013-07-01 06:34:00,
2013-07-01 02:39:00,71.6,66.2,29.91,WSW,240,0.0,0.0,83,0.00,,OVC032,0.00,VWS V14.01,2013-07-01 06:39:00,
2013-07-01 02:44:00,71.6,66.2,29.90,SW,236,0.0,0.0,83,0.00,,OVC032,0.00,VWS V14.01,2013-07-01 06:44:00,
2013-07-01 02:49:00,71.6,66.2,29.91,SW,236,0.0,0.0,83,0.00,,OVC032,0.00,VWS V14.01,2013-07-01 06:49:00,
2013-07-01 02:55:00,71.5,66.1,29.91,SW,236,0.0,0.0,83,0.00,,OVC032,0.00,VWS V14.01,2013-07-01 06:55:00,
2013-07-01 03:00:00,71.5,66.1,29.90,SW,235,0.0,0.0,83,0.00,,OVC032,0.00,VWS V14.01,2013-07-01 07:00:00,
2013-07-01 03:05:00,71.5,65.7,29.90,SSW,193,0.0,0.0,82,0.00,,OVC032,0.00,VWS V14.01,2013-07-01 07:05:00,
2013-07-01 03:10:00,71.4,65.6,29.90,SSW,193,0.0,0.0,82,0.00,,OVC032,0.00,VWS V14.01,2013-07-01 07:10:00,
2013-07-01 03:15:00,71.4,65.6,29.91,SSW,193,0.0,0.0,82,0.00,,OVC032,0.00,VWS V14.01,2013-07-01 07:15:00,
2013-07-01 03:20:00,71.3,65.5,29.90,SSW,193,0.0,0.0,82,0.00,,OVC032,0.00,VWS V14.01,2013-07-01 07:20:00,
2013-07-01 03:25:00,71.3,65.2,29.90,SSW,193,0.0,0.0,81,0.00,,OVC032,0.00,VWS V14.01,2013-07-01 07:25:00,
2013-07-01 03:30:00,71.3,65.2,29.90,SSW,194,0.0,0.0,81,0.00,,OVC032,0.00,VWS V14.01,2013-07-01 07:30:00,
2013-07-01 03:35:00,71.2,65.1,29.90,SSW,195,0.0,0.0,81,0.00,,OVC140,0.00,VWS V14.01,2013-07-01 07:35:00,
2013-07-01 03:40:00,71.2,65.1,29.91,SW,218,0.0,0.0,81,0.00,,OVC140,0.00,VWS V14.01,2013-07-01 07:40:00,
2013-07-01 03:45:00,71.2,64.7,29.91,SW,217,0.0,0.0,80,0.00,,OVC140,0.00,VWS V14.01,2013-07-01 07:45:00,
2013-07-01 03:50:00,71.2,64.7,29.91,SW,217,0.0,0.0,80,0.00,,OVC140,0.00,VWS V14.01,2013-07-01 07:50:00,
2013-07-01 03:55:00,71.2,64.7,29.91,SSW,204,0.0,0.0,80,0.00,,OVC140,0.00,VWS V14.01,2013-07-01 07:55:00,
2013-07-01 04:00:00,71.1,64.6,29.91,SSW,204,0.0,0.0,80,0.00,,OVC140,0.00,VWS V14.01,2013-07-01 08:00:00,
2013-07-01 04:05:00,71.0,64.5,29.91,SSW,205,0.0,0.0,80,0.00,,OVC140,0.00,VWS V14.01,2013-07-01 08:05:00,
2013-07-01 04:10:00,71.0,64.2,29.91,WSW,249,1.0,2.0,79,0.00,,OVC140,0.00,VWS V14.01,2013-07-01 08:10:00,
2013-07-01 04:15:00,70.9,64.1,29.91,WSW,243,1.0,1.0,79,0.00,,OVC140,0.00,VWS V14.01,2013-07-01 08:15:00,
2013-07-01 04:20:00,70.9,63.7,29.91,WSW,249,0.0,1.0,78,0.00,,OVC140,0.00,VWS V14.01,2013-07-01 08:20:00,
2013-07-01 04:25:00,70.9,63.7,29.91,WSW,249,0.0,0.0,78,0.00,,OVC140,0.00,VWS V14.01,2013-07-01 08:25:00,
2013-07-01 04:30:00,70.8,63.6,29.91,WSW,249,0.0,0.0,78,0.00,,OVC140,0.00,VWS V14.01,2013-07-01 08:30:00,
2013-07-01 04:31:00,70.8,63.6,29.91,WSW,249,0.0,0.0,78,0.00,,OVC140,0.00,VWS V14.01,2013-07-01 08:31:00,
2013-07-01 04:36:00,70.8,63.2,29.91,WSW,249,0.0,0.0,77,0.00,,OVC140,0.00,VWS V14.01,2013-07-01 08:36:00,
2013-07-01 04:37:00,70.7,63.1,29.91,WSW,249,0.0,0.0,77,0.00,,OVC140,0.00,VWS V14.01,2013-07-01 08:37:00,
2013-07-01 04:42:00,70.7,63.1,29.91,WSW,249,0.0,0.0,77,0.00,,OVC140,0.00,VWS V14.01,2013-07-01 08:42:00,
2013-07-01 04:47:00,70.6,63.0,29.91,WSW,249,0.0,0.0,77,0.00,,OVC140,0.00,VWS V14.01,2013-07-01 08:47:00,
2013-07-01 04:52:00,70.6,63.0,29.91,WSW,249,0.0,0.0,77,0.00,,OVC140,0.00,VWS V14.01,2013-07-01 08:52:00,
2013-07-01 04:57:00,70.6,63.0,29.91,WSW,249,0.0,0.0,77,0.00,,OVC140,0.00,VWS V14.01,2013-07-01 08:57:00,
2013-07-01 05:02:00,70.5,63.0,29.91,WSW,249,0.0,0.0,77,0.00,,OVC140,0.00,VWS V14.01,2013-07-01 09:02:00,
2013-07-01 05:07:00,70.5,63.0,29.92,WSW,249,0.0,0.0,77,0.00,,OVC140,0.00,VWS V14.01,2013-07-01 09:07:00,
2013-07-01 05:12:00,70.4,62.8,29.92,WSW,249,0.0,0.0,77,0.00,,OVC140,0.00,VWS V14.01,2013-07-01 09:12:00,
2013-07-01 05:17:00,70.4,62.5,29.93,WSW,249,0.0,0.0,76,0.00,,OVC140,0.00,VWS V14.01,2013-07-01 09:17:00,
2013-07-01 05:22:00,70.4,62.5,29.93,WSW,249,0.0,0.0,76,0.00,,OVC140,0.00,VWS V14.01,2013-07-01 09:22:00,
2013-07-01 05:27:00,70.3,62.4,29.93,WSW,249,0.0,0.0,76,0.00,,OVC140,0.00,VWS V14.01,2013-07-01 09:27:00,
2013-07-01 05:32:00,70.4,62.5,29.93,WSW,249,0.0,0.0,76,0.00,,OVC140,0.00,VWS V14.01,2013-07-01 09:32:00,
2013-07-01 05:37:00,70.5,62.6,29.93,WSW,249,0.0,0.0,76,0.00,,BKN250,0.00,VWS V14.01,2013-07-01 09:37:00,
2013-07-01 05:42:00,70.6,62.7,29.93,WSW,248,0.0,0.0,76,0.00,,BKN250,0.00,VWS V14.01,2013-07-01 09:42:00,
2013-07-01 05:47:00,70.6,62.7,29.93,WSW,249,0.0,0.0,76,0.00,,BKN250,0.00,VWS V14.01,2013-07-01 09:47:00,
2013-07-01 05:52:00,70.6,62.7,29.93,WSW,246,0.0,0.0,76,0.00,,BKN250,0.00,VWS V14.01,2013-07-01 09:52:00,
2013-07-01 05:58:00,70.6,62.7,29.94,WSW,246,0.0,0.0,76,0.00,,BKN250,0.00,VWS V14.01,2013-07-01 09:58:00,
2013-07-01 06:03:00,70.7,62.8,29.94,WSW,245,0.0,0.0,76,0.00,,BKN250,0.00,VWS V14.01,2013-07-01 10:03:00,
2013-07-01 06:08:00,70.9,63.0,29.94,ESE,115,0.0,0.0,76,0.00,,BKN250,0.00,VWS V14.01,2013-07-01 10:08:00,
2013-07-01 06:13:00,70.9,63.0,29.94,ESE,114,0.0,0.0,76,0.00,,BKN250,0.00,VWS V14.01,2013-07-01 10:13:00,
2013-07-01 06:18:00,71.0,63.4,29.94,ESE,114,0.0,0.0,77,0.00,,BKN250,0.00,VWS V14.01,2013-07-01 10:18:00,
2013-07-01 06:23:00,71.1,63.5,29.94,ESE,114,0.0,0.0,77,0.00,,BKN250,0.00,VWS V14.01,2013-07-01 10:23:00,
2013-07-01 06:28:00,71.4,63.8,29.94,ESE,114,0.0,0.0,77,0.00,,BKN250,0.00,VWS V14.01,2013-07-01 10:28:00,
2013-07-01 06:33:00,71.7,64.1,29.94,ESE,119,0.0,0.0,77,0.00,,BKN250,0.00,VWS V14.01,2013-07-01 10:33:00,
2013-07-01 06:38:00,71.8,64.9,29.94,SSE,163,0.0,0.0,79,0.00,,BKN250,0.00,VWS V14.01,2013-07-01 10:38:00,
2013-07-01 06:43:00,72.1,65.2,29.94,SSE,163,0.0,0.0,79,0.00,,BKN250,0.00,VWS V14.01,2013-07-01 10:43:00,
2013-07-01 06:48:00,72.3,65.8,29.94,SSW,195,0.0,0.0,80,0.00,,BKN250,0.00,VWS V14.01,2013-07-01 10:48:00,
2013-07-01 06:53:00,72.7,66.2,29.95,SW,228,0.0,0.0,80,0.00,,BKN250,0.00,VWS V14.01,2013-07-01 10:53:00,
2013-07-01 06:58:00,73.0,66.8,29.95,SW,222,1.0,1.0,81,0.00,,BKN250,0.00,VWS V14.01,2013-07-01 10:58:00,
2013-07-01 07:03:00,73.3,67.8,29.95,SW,233,0.0,1.0,83,0.00,,BKN250,0.00,VWS V14.01,2013-07-01 11:03:00,
2013-07-01 07:08:00,73.6,68.1,29.95,SW,219,1.0,2.0,83,0.00,,BKN250,0.00,VWS V14.01,2013-07-01 11:08:00,
2013-07-01 07:13:00,73.9,68.8,29.95,SW,229,2.0,2.0,84,0.00,,BKN250,0.00,VWS V14.01,2013-07-01 11:13:00,
2013-07-01 07:18:00,74.0,68.9,29.95,SW,222,0.0,2.0,84,0.00,,BKN250,0.00,VWS V14.01,2013-07-01 11:18:00,
2013-07-01 07:23:00,74.2,69.4,29.95,ESE,111,1.0,2.0,85,0.00,,BKN250,0.00,VWS V14.01,2013-07-01 11:23:00,
2013-07-01 07:28:00,74.3,69.5,29.95,SW,236,0.0,1.0,85,0.00,,BKN250,0.00,VWS V14.01,2013-07-01 11:28:00,
2013-07-01 07:33:00,74.6,69.8,29.96,ESE,108,1.0,2.0,85,0.00,,BKN250,0.00,VWS V14.01,2013-07-01 11:33:00,
2013-07-01 07:38:00,74.9,70.1,29.95,WSW,245,0.0,0.0,85,0.00,,BKN250,0.00,VWS V14.01,2013-07-01 11:38:00,
2013-07-01 07:44:00,75.3,70.5,29.96,South,172,0.0,0.0,85,0.00,,BKN250,0.00,VWS V14.01,2013-07-01 11:44:00,
2013-07-01 07:49:00,75.7,70.9,29.96,SW,221,0.0,0.0,85,0.00,,BKN250,0.00,VWS V14.01,2013-07-01 11:49:00,
2013-07-01 07:54:00,76.1,71.3,29.96,SSE,165,1.0,2.0,85,0.00,,BKN250,0.00,VWS V14.01,2013-07-01 11:54:00,
2013-07-01 07:59:00,76.6,72.1,29.96,SSW,198,0.0,0.0,86,0.00,,BKN250,0.00,VWS V14.01,2013-07-01 11:59:00,
2013-07-01 08:04:00,77.5,72.6,29.96,SW,232,1.0,1.0,85,0.00,,BKN250,0.00,VWS V14.01,2013-07-01 12:04:00,
2013-07-01 08:09:00,77.9,72.7,29.95,East,87,0.0,0.0,84,0.00,,BKN250,0.00,VWS V14.01,2013-07-01 12:09:00,
2013-07-01 08:14:00,78.2,73.0,29.95,SSW,207,0.0,0.0,84,0.00,,BKN250,0.00,VWS V14.01,2013-07-01 12:14:00,
2013-07-01 08:19:00,78.2,72.6,29.95,SW,219,0.0,1.0,83,0.00,,BKN250,0.00,VWS V14.01,2013-07-01 12:19:00,
2013-07-01 08:24:00,78.2,72.6,29.96,SW,233,1.0,1.0,83,0.00,,BKN250,0.00,VWS V14.01,2013-07-01 12:24:00,
2013-07-01 08:29:00,77.8,72.6,29.96,ESE,120,0.0,1.0,84,0.00,,BKN250,0.00,VWS V14.01,2013-07-01 12:29:00,
2013-07-01 08:34:00,77.7,72.5,29.96,WSW,257,0.0,1.0,84,0.00,,BKN250,0.00,VWS V14.01,2013-07-01 12:34:00,
2013-07-01 08:39:00,77.8,72.6,29.96,SSE,166,0.0,0.0,84,0.00,,BKN250,0.00,VWS V14.01,2013-07-01 12:39:00,
2013-07-01 08:44:00,78.0,72.8,29.96,SSW,207,0.0,0.0,84,0.00,,BKN250,0.00,VWS V14.01,2013-07-01 12:44:00,
2013-07-01 08:49:00,78.0,72.8,29.96,West,276,0.0,1.0,84,0.00,,OVC250,0.00,VWS V14.01,2013-07-01 12:49:00,
2013-07-01 08:54:00,77.8,72.6,29.97,SW,225,1.0,1.0,84,0.00,,OVC250,0.00,VWS V14.01,2013-07-01 12:54:00,
2013-07-01 08:59:00,77.9,72.7,29.97,SSW,204,0.0,0.0,84,0.00,,OVC250,0.00,VWS V14.01,2013-07-01 12:59:00,
2013-07-01 09:04:00,77.8,72.2,29.97,SE,138,0.0,0.0,83,0.00,,OVC250,0.00,VWS V14.01,2013-07-01 13:04:00,
2013-07-01 09:09:00,77.3,72.1,29.97,SW,221,2.0,2.0,84,0.00,,OVC250,0.00,VWS V14.01,2013-07-01 13:09:00,
2013-07-01 09:14:00,77.7,72.5,29.97,SW,228,0.0,1.0,84,0.00,,OVC250,0.00,VWS V14.01,2013-07-01 13:14:00,
2013-07-01 09:20:00,78.4,72.8,29.97,SW,228,1.0,1.0,83,0.00,,OVC250,0.00,VWS V14.01,2013-07-01 13:20:00,
2013-07-01 09:25:00,78.4,72.1,29.97,ESE,116,2.0,3.0,81,0.00,,OVC250,0.00,VWS V14.01,2013-07-01 13:25:00,
2013-07-01 09:30:00,76.7,71.2,29.98,East,95,0.0,1.0,83,0.00,,OVC250,0.00,VWS V14.01,2013-07-01 13:30:00,
2013-07-01 09:35:00,75.9,71.1,29.97,East,82,2.0,2.0,85,0.00,,BKN250,0.00,VWS V14.01,2013-07-01 13:35:00,
2013-07-01 09:40:00,75.5,70.7,29.97,East,82,0.0,1.0,85,0.00,,BKN250,0.00,VWS V14.01,2013-07-01 13:40:00,
2013-07-01 09:45:00,75.3,70.5,29.97,East,84,1.0,1.0,85,0.00,,BKN250,0.00,VWS V14.01,2013-07-01 13:45:00,
2013-07-01 09:50:00,75.4,70.9,29.98,ENE,72,1.0,1.0,86,0.00,,BKN250,0.00,VWS V14.01,2013-07-01 13:50:00,
2013-07-01 09:55:00,75.6,70.8,29.98,ESE,117,0.0,2.0,85,0.00,,OVC200,0.00,VWS V14.01,2013-07-01 13:55:00,
2013-07-01 10:00:00,75.4,70.9,29.98,East,94,1.0,2.0,86,0.00,,OVC200,0.00,VWS V14.01,2013-07-01 14:00:00,
2013-07-01 10:05:00,75.3,70.8,29.98,SE,137,0.0,0.0,86,0.00,,OVC200,0.00,VWS V14.01,2013-07-01 14:05:00,
2013-07-01 10:10:00,75.6,71.1,29.98,SSW,197,0.0,0.0,86,0.00,,OVC200,0.00,VWS V14.01,2013-07-01 14:10:00,
2013-07-01 10:15:00,76.2,71.7,29.98,SW,219,1.0,1.0,86,0.00,,OVC200,0.00,VWS V14.01,2013-07-01 14:15:00,
2013-07-01 10:20:00,76.8,72.3,29.98,SSW,208,0.0,0.0,86,0.00,,OVC200,0.00,VWS V14.01,2013-07-01 14:20:00,
2013-07-01 10:25:00,77.0,71.8,29.98,ESE,104,1.0,1.0,84,0.00,,OVC200,0.00,VWS V14.01,2013-07-01 14:25:00,
2013-07-01 10:30:00,76.2,71.0,29.98,ENE,76,1.0,2.0,84,0.00,,OVC200,0.00,VWS V14.01,2013-07-01 14:30:00,
2013-07-01 10:35:00,75.3,70.5,29.98,East,85,1.0,1.0,85,0.00,,OVC200,0.00,VWS V14.01,2013-07-01 14:35:00,
2013-07-01 10:41:00,74.7,69.9,29.98,East,89,1.0,1.0,85,0.00,,OVC200,0.00,VWS V14.01,2013-07-01 14:41:00,
2013-07-01 10:46:00,74.6,70.1,29.98,ENE,66,0.0,0.0,86,0.00,,OVC200,0.00,VWS V14.01,2013-07-01 14:46:00,
2013-07-01 10:51:00,75.1,70.6,29.99,ENE,67,0.0,0.0,86,0.00,,OVC200,0.00,VWS V14.01,2013-07-01 14:51:00,
2013-07-01 10:56:00,76.1,71.6,29.99,South,169,1.0,1.0,86,0.00,,OVC200,0.00,VWS V14.01,2013-07-01 14:56:00,
2013-07-01 11:01:00,76.9,72.1,29.98,SW,222,0.0,0.0,85,0.00,,OVC200,0.00,VWS V14.01,2013-07-01 15:01:00,
2013-07-01 11:06:00,77.5,72.6,29.98,South,190,0.0,0.0,85,0.00,,OVC200,0.00,VWS V14.01,2013-07-01 15:06:00,
2013-07-01 11:11:00,77.7,72.5,29.98,SE,132,1.0,1.0,84,0.00,,OVC200,0.00,VWS V14.01,2013-07-01 15:11:00,
2013-07-01 11:16:00,77.3,72.1,29.98,ESE,109,1.0,2.0,84,0.00,,OVC200,0.00,VWS V14.01,2013-07-01 15:16:00,
2013-07-01 11:21:00,77.0,72.2,29.99,SE,137,0.0,0.0,85,0.00,,OVC200,0.00,VWS V14.01,2013-07-01 15:21:00,
2013-07-01 11:26:00,77.2,72.3,29.99,South,179,0.0,1.0,85,0.00,,OVC200,0.00,VWS V14.01,2013-07-01 15:26:00,
2013-07-01 11:31:00,77.5,72.6,29.99,South,174,0.0,0.0,85,0.00,,OVC200,0.00,VWS V14.01,2013-07-01 15:31:00,
2013-07-01 11:36:00,77.7,72.5,29.98,SSE,167,0.0,2.0,84,0.00,,BKN150,0.00,VWS V14.01,2013-07-01 15:36:00,
2013-07-01 11:41:00,77.6,72.4,29.99,SSW,195,1.0,1.0,84,0.00,,BKN150,0.00,VWS V14.01,2013-07-01 15:41:00,
2013-07-01 11:46:00,77.5,72.3,29.99,South,191,2.0,2.0,84,0.00,,BKN150,0.00,VWS V14.01,2013-07-01 15:46:00,
2013-07-01 11:51:00,77.2,72.3,29.99,SSW,210,0.0,0.0,85,0.00,,BKN150,0.00,VWS V14.01,2013-07-01 15:51:00,
2013-07-01 11:57:00,77.1,72.2,29.99,SSW,207,0.0,0.0,85,0.00,,BKN150,0.00,VWS V14.01,2013-07-01 15:57:00,
2013-07-01 12:02:00,77.0,72.2,29.99,South,169,0.0,1.0,85,0.00,,BKN150,0.00,VWS V14.01,2013-07-01 16:02:00,
2013-07-01 12:07:00,76.9,72.1,29.98,South,188,1.0,1.0,85,0.00,,BKN150,0.00,VWS V14.01,2013-07-01 16:07:00,
2013-07-01 12:12:00,77.4,72.5,29.98,SSW,201,1.0,1.0,85,0.00,,BKN150,0.00,VWS V14.01,2013-07-01 16:12:00,
2013-07-01 12:17:00,77.9,72.7,29.98,SSW,198,0.0,1.0,84,0.00,,BKN150,0.00,VWS V14.01,2013-07-01 16:17:00,
2013-07-01 12:22:00,78.7,73.5,29.98,SSW,194,1.0,2.0,84,0.00,,BKN150,0.00,VWS V14.01,2013-07-01 16:22:00,
2013-07-01 12:27:00,79.8,73.8,29.97,ESE,108,1.0,1.0,82,0.00,,BKN150,0.00,VWS V14.01,2013-07-01 16:27:00,
2013-07-01 12:32:00,80.2,73.8,29.98,ESE,105,0.0,0.0,81,0.00,,BKN180,0.00,VWS V14.01,2013-07-01 16:32:00,
2013-07-01 12:37:00,80.3,73.9,29.97,SE,137,0.0,1.0,81,0.00,,BKN180,0.00,VWS V14.01,2013-07-01 16:37:00,
2013-07-01 12:42:00,80.3,73.9,29.97,SSE,153,0.0,1.0,81,0.00,,BKN180,0.00,VWS V14.01,2013-07-01 16:42:00,
2013-07-01 12:47:00,80.1,73.8,29.97,SE,146,0.0,1.0,81,0.00,,BKN180,0.00,VWS V14.01,2013-07-01 16:47:00,
2013-07-01 12:52:00,79.8,73.8,29.98,SSE,165,0.0,1.0,82,0.00,,BKN180,0.00,VWS V14.01,2013-07-01 16:52:00,
2013-07-01 12:57:00,79.4,73.1,29.98,SSE,147,1.0,1.0,81,0.00,,BKN180,0.00,VWS V14.01,2013-07-01 16:57:00,
2013-07-01 13:02:00,78.7,72.8,29.98,SE,134,1.0,2.0,82,0.00,,BKN180,0.00,VWS V14.01,2013-07-01 17:02:00,
2013-07-01 13:08:00,77.5,71.9,29.98,SSW,196,1.0,2.0,83,0.00,,BKN180,0.00,VWS V14.01,2013-07-01 17:08:00,
2013-07-01 13:13:00,76.8,71.6,29.98,SSE,154,1.0,1.0,84,0.00,,BKN180,0.00,VWS V14.01,2013-07-01 17:13:00,
2013-07-01 13:18:00,76.7,71.9,29.98,SSW,194,0.0,1.0,85,0.00,,BKN180,0.00,VWS V14.01,2013-07-01 17:18:00,
2013-07-01 13:23:00,76.4,71.6,29.98,SSE,153,1.0,1.0,85,0.00,,BKN180,0.00,VWS V14.01,2013-07-01 17:23:00,
2013-07-01 13:28:00,75.6,71.1,29.98,SSE,160,1.0,2.0,86,0.01,,BKN180,0.01,VWS V14.01,2013-07-01 17:28:00,
2013-07-01 13:33:00,75.0,70.2,29.98,SSW,193,0.0,1.0,85,0.02,,BKN180,0.02,VWS V14.01,2013-07-01 17:33:00,
2013-07-01 13:38:00,74.6,69.4,29.99,SSE,154,0.0,1.0,84,0.05,,OVC100,0.05,VWS V14.01,2013-07-01 17:38:00,
2013-07-01 13:43:00,74.3,68.8,29.98,SW,224,0.0,1.0,83,0.10,,OVC100,0.10,VWS V14.01,2013-07-01 17:43:00,
2013-07-01 13:48:00,74.0,68.2,29.99,ESE,115,0.0,1.0,82,0.16,,OVC100,0.16,VWS V14.01,2013-07-01 17:48:00,
2013-07-01 13:53:00,73.7,67.2,29.99,SW,226,0.0,1.0,80,0.19,,OVC100,0.19,VWS V14.01,2013-07-01 17:53:00,
2013-07-01 13:59:00,73.6,66.3,29.99,SE,146,0.0,0.0,78,0.21,, +RA,0.21,VWS V14.01,2013-07-01 17:59:00,
2013-07-01 14:04:00,73.5,66.2,29.99,SW,225,1.0,1.0,78,0.21,, +RA,0.21,VWS V14.01,2013-07-01 18:04:00,
2013-07-01 14:09:00,73.5,65.9,29.99,SW,221,0.0,0.0,77,0.21,, +RA,0.21,VWS V14.01,2013-07-01 18:09:00,
2013-07-01 14:14:00,73.5,65.9,29.98,SSE,148,0.0,0.0,77,0.21,, +RA,0.21,VWS V14.01,2013-07-01 18:14:00,
2013-07-01 14:19:00,73.5,65.9,29.98,SSW,197,0.0,0.0,77,0.21,, +RA,0.21,VWS V14.01,2013-07-01 18:19:00,
2013-07-01 14:24:00,73.5,65.5,29.99,WSW,255,0.0,0.0,76,0.21,, +RA,0.21,VWS V14.01,2013-07-01 18:24:00,
2013-07-01 14:29:00,73.5,65.9,29.98,WSW,255,0.0,0.0,77,0.21,, +RA,0.22,VWS V14.01,2013-07-01 18:29:00,
2013-07-01 14:34:00,73.4,65.8,29.99,WSW,255,0.0,0.0,77,0.20,, +RA,0.22,VWS V14.01,2013-07-01 18:34:00,
2013-07-01 14:39:00,73.4,65.8,29.99,WSW,255,0.0,0.0,77,0.18,,OVC050,0.24,VWS V14.01,2013-07-01 18:39:00,
2013-07-01 14:44:00,73.1,65.8,30.00,East,86,0.0,0.0,78,0.14,,OVC050,0.26,VWS V14.01,2013-07-01 18:44:00,
2013-07-01 14:49:00,73.1,65.1,29.99,East,92,2.0,2.0,76,0.12,,OVC050,0.29,VWS V14.01,2013-07-01 18:49:00,
2013-07-01 14:54:00,73.0,65.0,30.00,ESE,120,0.0,0.0,76,0.11,,OVC050,0.31,VWS V14.01,2013-07-01 18:54:00,
2013-07-01 14:59:00,72.7,65.1,30.00,SE,138,3.0,3.0,77,0.13,,BKN037,0.34,VWS V14.01,2013-07-01 18:59:00,
2013-07-01 15:05:00,72.2,65.0,30.00,ESE,109,2.0,4.0,78,0.17,,BKN037,0.38,VWS V14.01,2013-07-01 19:05:00,
2013-07-01 15:10:00,71.7,64.5,30.00,ESE,114,0.0,1.0,78,0.20,,BKN037,0.41,VWS V14.01,2013-07-01 19:10:00,
2013-07-01 15:15:00,71.1,64.6,30.00,East,80,1.0,2.0,80,0.21,,BKN037,0.42,VWS V14.01,2013-07-01 19:15:00,
2013-07-01 15:20:00,70.4,63.2,30.00,SE,139,1.0,1.0,78,0.22,,BKN037,0.43,VWS V14.01,2013-07-01 19:20:00,
2013-07-01 15:25:00,70.3,62.8,30.00,SE,139,0.0,0.0,77,0.23,,BKN037,0.44,VWS V14.01,2013-07-01 19:25:00,
2013-07-01 15:30:00,70.1,62.6,30.00,ESE,108,1.0,2.0,77,0.23,,BKN037,0.45,VWS V14.01,2013-07-01 19:30:00,
2013-07-01 15:35:00,69.9,62.4,30.00,East,101,2.0,2.0,77,0.25,,BKN037,0.47,VWS V14.01,2013-07-01 19:35:00,
2013-07-01 15:40:00,69.7,62.2,30.00,SE,124,2.0,2.0,77,0.25,,OVC033,0.49,VWS V14.01,2013-07-01 19:40:00,
2013-07-01 15:45:00,69.7,61.8,30.00,SE,137,0.0,0.0,76,0.26,,OVC033,0.52,VWS V14.01,2013-07-01 19:45:00,
2013-07-01 15:50:00,69.3,62.2,30.00,SE,142,0.0,1.0,78,0.25,,OVC033,0.54,VWS V14.01,2013-07-01 19:50:00,
2013-07-01 15:55:00,68.9,61.4,30.00,SE,143,0.0,0.0,77,0.26,,OVC033,0.57,VWS V14.01,2013-07-01 19:55:00,
2013-07-01 16:00:00,68.8,61.3,30.00,SE,142,0.0,0.0,77,0.27,,-RA,0.60,VWS V14.01,2013-07-01 20:00:00,
2013-07-01 16:05:00,68.8,60.9,30.00,SE,142,0.0,0.0,76,0.24,,-RA,0.62,VWS V14.01,2013-07-01 20:05:00,
2013-07-01 16:10:00,68.8,60.9,29.99,SE,142,0.0,0.0,76,0.23,,-RA,0.64,VWS V14.01,2013-07-01 20:10:00,
2013-07-01 16:15:00,68.9,60.7,29.99,SE,142,0.0,0.0,75,0.26,,-RA,0.68,VWS V14.01,2013-07-01 20:15:00,
2013-07-01 16:21:00,69.0,60.8,29.99,ENE,76,0.0,1.0,75,0.26,,-RA,0.69,VWS V14.01,2013-07-01 20:21:00,
2013-07-01 16:26:00,68.9,61.0,29.99,ENE,76,0.0,0.0,76,0.26,,-RA,0.70,VWS V14.01,2013-07-01 20:26:00,
2013-07-01 16:31:00,68.8,60.9,29.99,East,88,0.0,1.0,76,0.27,,-RA,0.72,VWS V14.01,2013-07-01 20:31:00,
2013-07-01 16:36:00,68.9,60.7,29.99,ESE,108,2.0,2.0,75,0.25,,-RA,0.72,VWS V14.01,2013-07-01 20:36:00,
2013-07-01 16:41:00,69.1,60.8,29.99,ESE,120,0.0,0.0,75,0.24,,-RA,0.73,VWS V14.01,2013-07-01 20:41:00,
2013-07-01 16:46:00,69.5,61.2,29.99,ESE,111,0.0,1.0,75,0.22,,-RA,0.74,VWS V14.01,2013-07-01 20:46:00,
2013-07-01 16:51:00,69.5,61.2,29.99,ESE,109,1.0,1.0,75,0.22,,-RA,0.76,VWS V14.01,2013-07-01 20:51:00,
2013-07-01 16:56:00,69.7,61.4,29.99,ESE,103,2.0,3.0,75,0.20,,-RA,0.77,VWS V14.01,2013-07-01 20:56:00,
2013-07-01 17:01:00,69.8,61.5,29.98,South,172,2.0,2.0,75,0.18,,-RA,0.78,VWS V14.01,2013-07-01 21:01:00,
2013-07-01 17:06:00,69.6,61.3,29.99,ESE,108,1.0,2.0,75,0.16,,-RA,0.78,VWS V14.01,2013-07-01 21:06:00,
2013-07-01 17:11:00,69.7,61.4,29.99,ESE,104,1.0,1.0,75,0.13,,-RA,0.78,VWS V14.01,2013-07-01 21:11:00,
2013-07-01 17:16:00,69.9,61.6,29.99,SE,139,0.0,0.0,75,0.10,,-RA,0.78,VWS V14.01,2013-07-01 21:16:00,
2013-07-01 17:21:00,69.9,61.6,29.99,ESE,104,2.0,2.0,75,0.10,,-RA,0.79,VWS V14.01,2013-07-01 21:21:00,
2013-07-01 17:26:00,70.0,61.7,29.99,ESE,108,0.0,0.0,75,0.08,,-RA,0.79,VWS V14.01,2013-07-01 21:26:00,
2013-07-01 17:32:00,70.1,61.8,30.00,WSW,255,0.0,1.0,75,0.10,,-RA,0.82,VWS V14.01,2013-07-01 21:32:00,
2013-07-01 17:37:00,70.2,61.9,30.00,SE,132,0.0,0.0,75,0.16,,-RA,0.88,VWS V14.01,2013-07-01 21:37:00,
2013-07-01 17:42:00,70.3,62.0,29.99,SE,133,0.0,0.0,75,0.17,,-RA,0.90,VWS V14.01,2013-07-01 21:42:00,
2013-07-01 17:47:00,70.3,62.0,29.99,ESE,119,1.0,1.0,75,0.16,,-RA,0.90,VWS V14.01,2013-07-01 21:47:00,
2013-07-01 17:52:00,69.7,61.8,30.00,NE,46,0.0,1.0,76,0.14,,-RA,0.90,VWS V14.01,2013-07-01 21:52:00,
2013-07-01 17:57:00,69.4,61.5,30.00,ESE,105,0.0,1.0,76,0.17,,-RA,0.94,VWS V14.01,2013-07-01 21:57:00,
2013-07-01 18:02:00,69.2,61.3,30.00,East,81,1.0,1.0,76,0.17,,-RA,0.95,VWS V14.01,2013-07-01 22:02:00,
2013-07-01 18:07:00,69.2,61.3,29.99,NE,53,0.0,0.0,76,0.17,,-RA,0.95,VWS V14.01,2013-07-01 22:07:00,
2013-07-01 18:12:00,69.4,61.1,29.99,ENE,66,0.0,0.0,75,0.17,,-RA,0.95,VWS V14.01,2013-07-01 22:12:00,
2013-07-01 18:17:00,69.5,61.2,30.00,ENE,64,0.0,0.0,75,0.17,,-RA,0.95,VWS V14.01,2013-07-01 22:17:00,
2013-07-01 18:22:00,69.7,61.4,30.00,ENE,67,0.0,0.0,75,0.16,,-RA,0.95,VWS V14.01,2013-07-01 22:22:00,
2013-07-01 18:27:00,69.6,61.3,30.00,ENE,67,0.0,0.0,75,0.16,,-RA,0.95,VWS V14.01,2013-07-01 22:27:00,
2013-07-01 18:32:00,69.5,61.6,30.00,NE,53,0.0,0.0,76,0.13,,-RA,0.95,VWS V14.01,2013-07-01 22:32:00,
2013-07-01 18:37:00,69.6,61.3,30.00,NE,54,0.0,0.0,75,0.06,,-RA,0.95,VWS V14.01,2013-07-01 22:37:00,
2013-07-01 18:42:00,69.8,61.5,30.00,NE,54,0.0,0.0,75,0.05,,-RA,0.95,VWS V14.01,2013-07-01 22:42:00,
2013-07-01 18:48:00,70.1,62.2,30.00,NE,53,0.0,0.0,76,0.05,,-RA,0.95,VWS V14.01,2013-07-01 22:48:00,
2013-07-01 18:53:00,70.3,62.4,30.00,West,259,0.0,0.0,76,0.05,,-RA,0.95,VWS V14.01,2013-07-01 22:53:00,
2013-07-01 18:58:00,70.5,62.6,30.00,West,259,0.0,0.0,76,0.01,,-RA,0.95,VWS V14.01,2013-07-01 22:58:00,
2013-07-01 19:03:00,70.6,62.7,30.00,SSE,150,0.0,0.0,76,0.00,,-RA,0.95,VWS V14.01,2013-07-01 23:03:00,
2013-07-01 19:08:00,70.7,62.8,30.00,South,169,0.0,0.0,76,0.00,,-RA,0.95,VWS V14.01,2013-07-01 23:08:00,
2013-07-01 19:13:00,70.9,63.0,30.00,SSE,166,0.0,0.0,76,0.00,,-RA,0.95,VWS V14.01,2013-07-01 23:13:00,
2013-07-01 19:18:00,70.8,62.9,30.00,ESE,108,0.0,1.0,76,0.00,,-RA,0.95,VWS V14.01,2013-07-01 23:18:00,
2013-07-01 19:23:00,70.6,62.7,30.01,ESE,114,2.0,2.0,76,0.00,,-RA,0.95,VWS V14.01,2013-07-01 23:23:00,
2013-07-01 19:28:00,70.2,62.3,30.01,ESE,105,2.0,4.0,76,0.00,,-RA,0.95,VWS V14.01,2013-07-01 23:28:00,
2013-07-01 19:33:00,69.7,61.8,30.01,ESE,108,3.0,5.0,76,0.00,,-RA,0.95,VWS V14.01,2013-07-01 23:33:00,
2013-07-01 19:38:00,69.5,61.6,30.00,ESE,120,1.0,3.0,76,0.00,,-RA,0.95,VWS V14.01,2013-07-01 23:38:00,
2013-07-01 19:43:00,69.4,61.5,30.01,SSE,167,0.0,4.0,76,0.00,,-RA,0.95,VWS V14.01,2013-07-01 23:43:00,
2013-07-01 19:48:00,69.3,61.4,30.01,SE,124,1.0,3.0,76,0.00,,-RA,0.95,VWS V14.01,2013-07-01 23:48:00,
2013-07-01 19:53:00,69.0,61.1,30.01,ESE,117,2.0,2.0,76,0.00,,-RA,0.95,VWS V14.01,2013-07-01 23:53:00,
2013-07-01 19:58:00,68.7,60.8,30.01,ESE,108,1.0,1.0,76,0.00,,-RA,0.95,VWS V14.01,2013-07-01 23:58:00,
2013-07-01 20:03:00,68.6,60.7,30.01,SE,134,0.0,1.0,76,0.00,,-RA,0.95,VWS V14.01,2013-07-02 00:03:00,
2013-07-01 20:08:00,68.3,60.5,30.01,ESE,114,1.0,1.0,76,0.00,,-RA,0.95,VWS V14.01,2013-07-02 00:08:00,
2013-07-01 20:13:00,67.9,60.1,30.01,SE,143,1.0,1.0,76,0.00,,-RA,0.95,VWS V14.01,2013-07-02 00:13:00,
2013-07-01 20:18:00,67.8,60.0,30.01,SE,143,0.0,0.0,76,0.00,,-RA,0.95,VWS V14.01,2013-07-02 00:18:00,
2013-07-01 20:23:00,67.4,59.6,30.01,SE,141,0.0,0.0,76,0.00,,-RA,0.95,VWS V14.01,2013-07-02 00:23:00,
2013-07-01 20:29:00,67.2,59.4,30.02,SE,141,0.0,0.0,76,0.00,,-RA,0.95,VWS V14.01,2013-07-02 00:29:00,
2013-07-01 20:34:00,67.1,59.3,30.02,SE,141,0.0,0.0,76,0.00,,-RA,0.95,VWS V14.01,2013-07-02 00:34:00,
2013-07-01 20:39:00,66.9,59.1,30.02,SE,141,1.0,1.0,76,0.00,,-RA,0.95,VWS V14.01,2013-07-02 00:39:00,
2013-07-01 20:44:00,66.9,59.1,30.02,SE,141,0.0,0.0,76,0.00,,-RA,0.95,VWS V14.01,2013-07-02 00:44:00,
2013-07-01 20:49:00,66.9,59.1,30.03,SE,141,0.0,0.0,76,0.00,,-RA,0.95,VWS V14.01,2013-07-02 00:49:00,
2013-07-01 20:54:00,66.9,59.1,30.03,SE,132,0.0,0.0,76,0.00,,-RA,0.95,VWS V14.01,2013-07-02 00:54:00,
2013-07-01 20:59:00,66.9,59.5,30.03,ENE,59,0.0,0.0,77,0.00,,-RA,0.95,VWS V14.01,2013-07-02 00:59:00,
2013-07-01 21:04:00,67.1,59.7,30.03,ESE,111,0.0,0.0,77,0.00,,-RA,0.95,VWS V14.01,2013-07-02 01:04:00,
2013-07-01 21:09:00,67.1,59.7,30.03,NNW,328,0.0,1.0,77,0.00,,-RA,0.95,VWS V14.01,2013-07-02 01:09:00,
2013-07-01 21:14:00,67.0,59.6,30.03,NNW,329,0.0,0.0,77,0.00,,-RA,0.95,VWS V14.01,2013-07-02 01:14:00,
2013-07-01 21:19:00,67.2,59.8,30.03,NNW,329,0.0,0.0,77,0.00,,-RA,0.95,VWS V14.01,2013-07-02 01:19:00,
2013-07-01 21:24:00,67.2,59.8,30.04,NNW,329,0.0,0.0,77,0.00,,-RA,0.95,VWS V14.01,2013-07-02 01:24:00,
2013-07-01 21:29:00,67.1,59.7,30.04,NNE,22,1.0,1.0,77,0.00,,-RA,0.95,VWS V14.01,2013-07-02 01:29:00,
2013-07-01 21:34:00,67.1,59.7,30.04,NNE,22,0.0,0.0,77,0.00,,-RA,0.95,VWS V14.01,2013-07-02 01:34:00,
2013-07-01 21:39:00,67.1,59.7,30.04,NNE,22,1.0,1.0,77,0.01,,-RA,0.96,VWS V14.01,2013-07-02 01:39:00,
2013-07-01 21:44:00,67.3,59.8,30.03,NNE,15,1.0,1.0,77,0.01,,-RA,0.96,VWS V14.01,2013-07-02 01:44:00,
2013-07-01 21:49:00,67.5,60.0,30.04,NNE,15,0.0,0.0,77,0.01,,-RA,0.96,VWS V14.01,2013-07-02 01:49:00,
2013-07-01 21:54:00,67.5,60.4,30.04,NNE,15,0.0,0.0,78,0.01,,-RA,0.96,VWS V14.01,2013-07-02 01:54:00,
2013-07-01 21:59:00,67.7,60.6,30.04,NNE,15,0.0,1.0,78,0.01,,-RA,0.96,VWS V14.01,2013-07-02 01:59:00,
2013-07-01 22:04:00,67.7,60.6,30.04,NNE,15,0.0,0.0,78,0.01,,-RA,0.96,VWS V14.01,2013-07-02 02:04:00,
2013-07-01 22:09:00,67.7,60.6,30.03,NNE,15,1.0,1.0,78,0.01,,-RA,0.96,VWS V14.01,2013-07-02 02:09:00,
2013-07-01 22:12:00,67.7,60.6,30.03,NNE,15,0.0,0.0,78,0.01,,-RA,0.96,VWS V14.01,2013-07-02 02:12:00,
2013-07-01 22:17:00,67.7,60.6,30.03,NNE,15,0.0,0.0,78,0.01,,-RA,0.96,VWS V14.01,2013-07-02 02:17:00,
2013-07-01 22:22:00,67.7,60.6,30.03,NNE,15,0.0,0.0,78,0.01,,-RA,0.96,VWS V14.01,2013-07-02 02:22:00,
2013-07-01 22:27:00,67.6,60.5,30.03,NNE,15,0.0,0.0,78,0.01,,-RA,0.96,VWS V14.01,2013-07-02 02:27:00,
2013-07-01 22:32:00,67.6,60.5,30.04,NNE,15,0.0,0.0,78,0.01,,-RA,0.96,VWS V14.01,2013-07-02 02:32:00,
2013-07-01 22:37:00,67.7,60.6,30.04,NNE,15,0.0,0.0,78,0.01,,-RA,0.96,VWS V14.01,2013-07-02 02:37:00,
2013-07-01 22:42:00,67.9,60.8,30.04,ESE,109,0.0,0.0,78,0.00,,-RA,0.96,VWS V14.01,2013-07-02 02:42:00,
2013-07-01 22:47:00,68.1,61.0,30.04,ESE,109,0.0,1.0,78,0.00,,-RA,0.96,VWS V14.01,2013-07-02 02:47:00,
2013-07-01 22:52:00,68.3,61.2,30.04,ESE,109,0.0,0.0,78,0.00,,-RA,0.96,VWS V14.01,2013-07-02 02:52:00,
2013-07-01 22:57:00,68.3,61.2,30.04,SW,226,2.0,2.0,78,0.00,,-RA,0.96,VWS V14.01,2013-07-02 02:57:00,
2013-07-01 23:02:00,68.3,61.2,30.04,SW,219,0.0,0.0,78,0.00,,-RA,0.96,VWS V14.01,2013-07-02 03:02:00,
2013-07-01 23:07:00,68.3,61.2,30.04,SSW,201,0.0,0.0,78,0.00,,-RA,0.96,VWS V14.01,2013-07-02 03:07:00,
2013-07-01 23:12:00,68.3,61.2,30.04,SSW,203,0.0,0.0,78,0.00,,-RA,0.96,VWS V14.01,2013-07-02 03:12:00,
2013-07-01 23:17:00,68.4,61.3,30.04,ESE,109,0.0,0.0,78,0.00,,-RA,0.96,VWS V14.01,2013-07-02 03:17:00,
2013-07-01 23:22:00,68.8,62.0,30.05,South,187,0.0,0.0,79,0.00,,-RA,0.96,VWS V14.01,2013-07-02 03:22:00,
2013-07-01 23:27:00,69.0,62.2,30.05,South,187,0.0,0.0,79,0.00,,-RA,0.96,VWS V14.01,2013-07-02 03:27:00,
2013-07-01 23:32:00,69.2,62.4,30.05,South,187,0.0,0.0,79,0.00,,,0.96,VWS V14.01,2013-07-02 03:32:00,
2013-07-01 23:37:00,69.2,62.4,30.05,South,187,0.0,0.0,79,0.00,,,0.96,VWS V14.01,2013-07-02 03:37:00,
2013-07-01 23:42:00,68.7,61.9,30.04,South,187,0.0,0.0,79,0.00,,,0.96,VWS V14.01,2013-07-02 03:42:00,
2013-07-01 23:47:00,68.1,61.0,30.04,ESE,121,0.0,0.0,78,0.00,,,0.96,VWS V14.01,2013-07-02 03:47:00,
2013-07-01 23:52:00,67.7,60.2,30.04,ESE,121,0.0,0.0,77,0.00,,,0.96,VWS V14.01,2013-07-02 03:52:00,
2013-07-01 23:57:00,67.6,60.1,30.05,ESE,121,0.0,0.0,77,0.00,,,0.96,VWS V14.01,2013-07-02 03:57:00,